Follow iAlert.com on twitter @ialertcom
Search For Active Alerts in Your Area  
  Hi Guest:  [ Sign-up / Services ] [ Login ]

Current weather by "City, St" or "zip code"  
 

Advertise Here

Current Conditions: Pottstown, Pottstown Limerick Airport, PA

Fair


84.0 F

Last Updated on Sep 21 2017, 4:54 pm EDT
Humidity: 48%
Wind Speed: NE 5.8 mph
Barometer 30.02 in
Dewpoint: 62.1 F
Visibility: 10.00 mi
Precip: --
Heat Index: 85 F
Wind Chill: NA
Current conditions at:

Pottstown, Pottstown Limerick Airport, PA (KPTW)

Lat: 40.23 Lon: 75.554

Local Radar Image active severe weather and emergency alerts image image weather storm and storm spotter reports image weather observation monitoring service image
Local
Radar
Active
Alerts
Storm Reports Obs
Monitoring

iAlert Weather and Emergency Alert Notification Services:


ialert severe weather and emergency alerts by text message and email ialert daily weather forecast by email and text message service ialert real-time weather-observation monitoring and alert notification service ialert storm report monitoring alert notification

Observation History for Pottstown, Pottstown Limerick Airport, PA


Time Wind
(mph)
Vis
(mi)
Weather Precip (in) Temperature (F) Relative
Humidity
Wind
Chill
(°F)
Heat
Index
(°F)
Pressure
Air Dwpt altimeter
(in)
sea level
(mb)
4:54 pm EDT NE 5.8 10.00 Fair -- 84.0 62.1 48% NA 85 30.02 1016.0
2:54 pm EDT N 5.8 10.00 Fair -- 84.0 62.1 48% NA 85 30.02 1016.1
1:54 pm EDT 5.8 10.00 Fair -- 83.0 62.1 49% NA 84 30.03 1016.5
12:54 pm EDT N 5.8 10.00 A Few Clouds -- 81.0 64.0 57% NA 83 30.05 1017.1
10:54 am EDT N 0.0 10.00 Fair -- 79.0 66.0 65% NA NA 30.07 1017.7
9:54 am EDT N 5.8 10.00 Fair -- 75.0 64.9 71% NA NA 30.07 1017.8
8:54 am EDT N 0.0 10.00 Fair -- 71.0 64.9 81% NA NA 30.07 1017.7
7:54 am EDT 3.5 9.00 Partly Cloudy -- 67.0 64.0 91% NA NA 30.07 1017.8
6:54 am EDT N 0.0 10.00 Overcast -- 65.0 63.0 93% NA NA 30.07 1017.7
5:54 am EDT NW 3.5 10.00 Overcast -- 65.0 63.0 93% NA NA 30.05 1017.0
4:54 am EDT N 0.0 10.00 Overcast -- 64.0 63.0 96% NA NA 30.03 1016.3
3:54 am EDT N 0.0 10.00 Fair -- 62.0 62.1 100% NA NA 30.01 1015.8
2:54 am EDT N 3.5 10.00 Fair -- 63.0 63.0 100% NA NA 30.01 1015.7
1:54 am EDT N 0.0 10.00 Fair -- 63.0 63.0 100% NA NA 30.01 1015.6
12:54 am EDT N 0.0 10.00 Fair -- 66.0 64.0 93% NA NA 30.00 1015.5
11:54 pm EDT N 0.0 10.00 Fair -- 65.0 64.0 97% NA NA 30.00 1015.5
10:54 pm EDT N 0.0 10.00 Fair -- 66.0 64.9 96% NA NA 29.99 1015.1
9:54 pm EDT N 0.0 10.00 Fair -- 67.0 66.0 97% NA NA 29.98 1014.6
8:54 pm EDT N 0.0 10.00 Fair -- 70.0 66.0 87% NA NA 29.96 1014.1
7:54 pm EDT NE 3.5 10.00 A Few Clouds -- 73.0 66.0 79% NA NA 29.96 1014.0
6:54 pm EDT N 0.0 10.00 Overcast -- 77.0 69.1 77% NA NA 29.95 1013.6
5:54 pm EDT NE 3.5 10.00 Fair -- 82.0 63.0 53% NA 83 29.93 1013.1

Regional Weather Observation


Pottstown, Pottstown Limerick Airport, PA (KPTW)

Fair
84.0 F

Allentown Queen City Municipal Airport, PA (KXLL)

Fair
86.0 F

Quakertown Airport, PA (KUKT)

Fair
82.0 F

Allentown, Lehigh Valley International Airport, PA (KABE)

Fair
87.0 F

Doylestown, Doylestown Airport, PA (KDYL)

Fair
82.0 F

Philadelphia, Northeast Philadelphia Airport, PA (KPNE)

Fair
84.0 F

Advertise Here